Tracking 23731 objects as of 26-Sep-2021
HD Live streaming from Space Station
objects crossing your sky now

CZ-2D DEB

Track CZ-2D DEB now!
10-day predictions


NORAD ID: 43200
Int'l Code: 2018-015J
Perigee: 430.3 km
Apogee: 460.3 km
Inclination: 97.6 °
Period: 93.3 minutes
Semi major axis: 6816 km
RCS: Unknown
Launch date: February 2, 2018
Source: People's Republic of China (PRC)
Launch site: Jiuquan Satellite Launch Center, China (JSC)
aabbcc
Your satellite tracking list
Your tracking list is empty




NASA's NSSDC Master Catalog

Two Line Element Set (TLE):
1 43200U 18015J   21268.75042629  .00016362  00000-0  37371-3 0  9990
2 43200  97.5934  83.5430 0022002 280.4689  79.4079 15.42688243204223
Source of the keplerian elements: AFSPC